• In Belarus
  • List of Countries
  • For 7 days
  • Water Temperature
  • Satellite Maps
  • Weather Map
  • Weather Widgets
  • user-avatar
    Login

    Hourly Weather Kitzbuhel

    Today, 18 June, Monday

    Time Temperature Precipitation Wind Pressure Humidity
    00:00 +13°C° 0.7 mm 1 mps 680 mmHg 97%
    01:00 +13°C° 0.7 mm 1 mps 680 mmHg 97%
    02:00 +13°C° 0.9 mm 1 mps 680 mmHg 97%
    03:00 +13°C° 0.9 mm 1 mps 680 mmHg 98%
    04:00 +13°C° 0.9 mm 1 mps 680 mmHg 98%
    05:00 +13°C° 0.4 mm 1 mps 680 mmHg 97%
    06:00 +13°C° 0.4 mm 1 mps 680 mmHg 97%
    07:00 +14°C° 0.4 mm 1 mps 680 mmHg 97%
    08:00 +14°C° 0.2 mm 1 mps 680 mmHg 94%
    09:00 +15°C° 0.2 mm 1 mps 681 mmHg 91%
    10:00 +16°C° 0.2 mm 1 mps 681 mmHg 88%
    11:00 +17°C° 0.1 mm 2 mps 681 mmHg 82%
    12:00 +18°C° 0.1 mm 2 mps 681 mmHg 76%
    13:00 +19°C° 0.1 mm 2 mps 681 mmHg 70%
    14:00 +19°C° 0.1 mm 2 mps 681 mmHg 68%
    15:00 +19°C° 0.1 mm 2 mps 681 mmHg 67%
    16:00 +19°C° 0.1 mm 2 mps 681 mmHg 66%
    17:00 +18°C° 0.1 mm 2 mps 681 mmHg 72%
    18:00 +18°C° 0.1 mm 2 mps 681 mmHg 78%
    19:00 +18°C° 0.1 mm 1 mps 681 mmHg 85%
    20:00 +15°C° 0 mm 1 mps 681 mmHg 88%
    21:00 +14°C° 0 mm 1 mps 682 mmHg 92%
    22:00 +13°C° 0 mm 1 mps 682 mmHg 96%
    23:00 +12°C° 0 mm 1 mps 682 mmHg 96%

    Tomorrow, 19 June, Tuesday

    Time Temperature Precipitation Wind Pressure Humidity
    00:00 +12°C° 0 mm 1 mps 682 mmHg 96%
    01:00 +12°C° 0 mm 1 mps 682 mmHg 96%
    02:00 +12°C° 0 mm 1 mps 682 mmHg 96%
    03:00 +11°C° 0 mm 1 mps 682 mmHg 96%
    04:00 +11°C° 0 mm 1 mps 682 mmHg 96%
    05:00 +13°C° 0 mm 1 mps 682 mmHg 92%
    06:00 +14°C° 0 mm 1 mps 683 mmHg 88%
    07:00 +15°C° 0 mm 1 mps 683 mmHg 84%
    08:00 +18°C° 0 mm 1 mps 683 mmHg 76%
    09:00 +19°C° 0 mm 2 mps 683 mmHg 69%
    10:00 +20°C° 0 mm 2 mps 684 mmHg 61%
    11:00 +21°C° 0 mm 2 mps 684 mmHg 59%
    12:00 +23°C° 0 mm 2 mps 684 mmHg 57%
    13:00 +24°C° 0 mm 2 mps 684 mmHg 55%
    14:00 +24°C° 0 mm 2 mps 683 mmHg 56%
    15:00 +24°C° 0 mm 2 mps 683 mmHg 57%
    16:00 +24°C° 0 mm 2 mps 683 mmHg 58%
    17:00 +21°C° 0.1 mm 2 mps 683 mmHg 66%
    18:00 +20°C° 0.1 mm 2 mps 683 mmHg 75%
    19:00 +20°C° 0.1 mm 1 mps 683 mmHg 83%
    20:00 +19°C° 0 mm 1 mps 683 mmHg 88%
    21:00 +16°C° 0 mm 1 mps 683 mmHg 92%
    22:00 +15°C° 0 mm 1 mps 683 mmHg 96%
    23:00 +14°C° 0 mm 1 mps 682 mmHg 96%

    Day after tomorrow, 20 June, Wednesday

    Time Temperature Precipitation Wind Pressure Humidity
    00:00 +14°C° 0 mm 1 mps 682 mmHg 96%
    01:00 +13°C° 0 mm 1 mps 682 mmHg 96%
    02:00 +13°C° 0 mm 1 mps 682 mmHg 95%
    03:00 +13°C° 0 mm 1 mps 682 mmHg 95%
    04:00 +12°C° 0 mm 1 mps 681 mmHg 94%
    05:00 +14°C° 0 mm 1 mps 682 mmHg 89%
    06:00 +15°C° 0 mm 0 mps 682 mmHg 84%
    07:00 +17°C° 0 mm 0 mps 682 mmHg 79%
    08:00 +21°C° 0 mm 1 mps 683 mmHg 71%
    09:00 +23°C° 0 mm 1 mps 683 mmHg 62%
    10:00 +25°C° 0 mm 1 mps 683 mmHg 54%
    11:00 +26°C° 0 mm 1 mps 683 mmHg 52%
    12:00 +26°C° 0 mm 2 mps 683 mmHg 50%
    13:00 +27°C° 0 mm 2 mps 683 mmHg 48%
    14:00 +26°C° 0.3 mm 2 mps 682 mmHg 54%
    15:00 +26°C° 0.3 mm 2 mps 682 mmHg 60%
    16:00 +25°C° 0.3 mm 2 mps 682 mmHg 66%
    17:00 +24°C° 1 mm 1 mps 681 mmHg 72%
    18:00 +23°C° 1 mm 1 mps 681 mmHg 78%
    19:00 +22°C° 1 mm 1 mps 681 mmHg 84%
    20:00 +21°C° 0.7 mm 1 mps 681 mmHg 87%
    21:00 +19°C° 0.7 mm 1 mps 681 mmHg 90%
    22:00 +18°C° 0.7 mm 1 mps 681 mmHg 93%
    23:00 +16°C° 0.6 mm 1 mps 680 mmHg 93%

    21 June, Thursday

    Time Temperature Precipitation Wind Pressure Humidity
    00:00 +16°C° 0.6 mm 1 mps 680 mmHg 94%
    01:00 +16°C° 0.6 mm 1 mps 680 mmHg 94%
    02:00 +15°C° 0.3 mm 1 mps 680 mmHg 94%
    03:00 +15°C° 0.3 mm 1 mps 679 mmHg 94%
    04:00 +15°C° 0.3 mm 1 mps 679 mmHg 94%
    05:00 +16°C° 0 mm 1 mps 679 mmHg 90%
    06:00 +19°C° 0 mm 1 mps 679 mmHg 85%
    07:00 +21°C° 0 mm 1 mps 679 mmHg 81%
    08:00 +22°C° 0.4 mm 1 mps 679 mmHg 75%
    09:00 +24°C° 0.4 mm 1 mps 679 mmHg 70%
    10:00 +25°C° 0.4 mm 1 mps 679 mmHg 65%
    11:00 +26°C° 1.5 mm 1 mps 679 mmHg 66%
    12:00 +26°C° 1.5 mm 1 mps 678 mmHg 67%
    13:00 +26°C° 1.5 mm 1 mps 678 mmHg 68%
    14:00 +25°C° 1.7 mm 1 mps 678 mmHg 71%
    15:00 +25°C° 1.7 mm 1 mps 677 mmHg 73%
    16:00 +24°C° 1.7 mm 1 mps 677 mmHg 76%
    17:00 +23°C° 1.5 mm 1 mps 677 mmHg 81%
    18:00 +22°C° 1.5 mm 1 mps 677 mmHg 87%
    19:00 +21°C° 1.5 mm 1 mps 677 mmHg 92%
    20:00 +20°C° 0.9 mm 1 mps 677 mmHg 93%
    21:00 +19°C° 0.9 mm 1 mps 677 mmHg 95%
    22:00 +18°C° 0.9 mm 1 mps 677 mmHg 96%
    23:00 +16°C° 1.9 mm 1 mps 677 mmHg 97%

    22 June, Friday

    Time Temperature Precipitation Wind Pressure Humidity
    00:00 +16°C° 1.9 mm 2 mps 677 mmHg 97%
    01:00 +15°C° 1.9 mm 2 mps 677 mmHg 98%
    02:00 +14°C° 2.5 mm 2 mps 677 mmHg 98%
    03:00 +13°C° 2.5 mm 2 mps 677 mmHg 98%
    04:00 +12°C° 2.5 mm 2 mps 677 mmHg 98%
    05:00 +10°C° 1.8 mm 2 mps 677 mmHg 98%
    06:00 +9°C° 1.8 mm 2 mps 677 mmHg 98%
    07:00 +8°C° 1.8 mm 2 mps 677 mmHg 98%
    08:00 +8°C° 1 mm 2 mps 677 mmHg 97%
    09:00 +8°C° 1 mm 2 mps 678 mmHg 95%
    10:00 +8°C° 1 mm 2 mps 678 mmHg 94%
    11:00 +9°C° 0.3 mm 2 mps 678 mmHg 88%
    12:00 +10°C° 0.3 mm 2 mps 678 mmHg 82%
    13:00 +10°C° 0.3 mm 2 mps 679 mmHg 76%
    14:00 +11°C° 0 mm 3 mps 679 mmHg 69%
    15:00 +12°C° 0 mm 3 mps 679 mmHg 61%
    16:00 +13°C° 0 mm 3 mps 679 mmHg 54%
    17:00 +12°C° 0 mm 3 mps 679 mmHg 60%
    18:00 +11°C° 0 mm 3 mps 679 mmHg 66%
    19:00 +10°C° 0 mm 2 mps 679 mmHg 72%
    20:00 +9°C° 0 mm 2 mps 679 mmHg 78%
    21:00 +8°C° 0 mm 2 mps 680 mmHg 84%
    22:00 +8°C° 0 mm 1 mps 680 mmHg 90%
    23:00 +8°C° 0 mm 1 mps 680 mmHg 90%

    23 June, Saturday

    Time Temperature Precipitation Wind Pressure Humidity
    00:00 +7°C° 0 mm 1 mps 680 mmHg 90%
    01:00 +7°C° 0 mm 1 mps 680 mmHg 91%
    02:00 +7°C° 0 mm 1 mps 680 mmHg 91%
    03:00 +6°C° 0 mm 1 mps 679 mmHg 92%
    04:00 +6°C° 0 mm 1 mps 679 mmHg 92%
    05:00 +7°C° 0 mm 1 mps 679 mmHg 86%
    06:00 +9°C° 0 mm 1 mps 679 mmHg 80%
    07:00 +10°C° 0 mm 1 mps 680 mmHg 74%
    08:00 +12°C° 0 mm 1 mps 680 mmHg 68%
    09:00 +13°C° 0 mm 1 mps 680 mmHg 61%
    10:00 +15°C° 0 mm 2 mps 680 mmHg 55%
    11:00 +15°C° 0 mm 2 mps 680 mmHg 53%
    12:00 +16°C° 0 mm 2 mps 680 mmHg 52%
    13:00 +17°C° 0 mm 2 mps 680 mmHg 50%
    14:00 +16°C° 0 mm 2 mps 679 mmHg 52%
    15:00 +16°C° 0 mm 2 mps 679 mmHg 54%
    16:00 +16°C° 0 mm 2 mps 679 mmHg 56%
    17:00 +15°C° 0 mm 2 mps 679 mmHg 64%
    18:00 +14°C° 0 mm 2 mps 679 mmHg 71%
    19:00 +13°C° 0 mm 2 mps 679 mmHg 78%
    20:00 +11°C° 0 mm 1 mps 679 mmHg 84%
    21:00 +10°C° 0 mm 1 mps 679 mmHg 90%
    22:00 +8°C° 0 mm 0 mps 680 mmHg 95%
    23:00 +8°C° 0 mm 0 mps 680 mmHg 95%
    Show more